Location: Krasnoyarskiy Pitomnik
(51.1333°N, 71.6167°E)
Time: 10:19:23
(UTC+00:00)

Altair - Pass Details

Date: 14 April 2024
Orbit: 1502 x 1682 km, 47.2° (Epoch: 23 May)

Event Time Altitude Azimuth Distance (km) Brightness Sun altitude
Rises 20:10:33 0° 279° (W) 4,820 10.0 -27.8°
Reaches altitude 10° 20:13:45 10° 276° (W) 3,809 9.4 -27.7°
Maximum altitude 20:23:07 59° 201° (SSW) 1,758 7.4 -27.2°
Drops below altitude 10° 20:32:08 10° 125° (SE) 3,677 9.3 -26.7°
Sets 20:35:10 0° 122° (ESE) 4,644 9.9 -26.5°
